Location: Vancouver
(49.2500°N, 123.1330°W)
Time: 16:26:38
(UTC-08:00)

SO-67 - Visible Passes

Search period start: 22 January 2017 00:00
Search period end: 01 February 2017 00:00
Orbit: 411 x 412 km, 97.1° (Epoch: 22 January)

Date Brightness Start Highest point End Pass type
(mag) Time Alt. Az. Time Alt. Az. Time Alt. Az.
22 Jan ? 06:24:40 10° NE 06:27:00 19° E 06:29:19 10° SE visible
22 Jan ? 18:25:32 10° S 18:28:39 56° W 18:31:48 10° NNW visible
23 Jan ? 07:09:21 10° NNE 07:12:33 71° E 07:15:43 10° S visible
23 Jan ? 17:39:11 10° SE 17:42:05 33° ENE 17:45:00 10° N visible
23 Jan ? 19:12:14 10° SW 19:14:14 15° W 19:16:14 10° NW visible
24 Jan ? 06:23:27 10° NE 06:25:43 18° E 06:27:59 10° SE visible
24 Jan ? 18:24:14 10° S 18:27:22 58° W 18:30:32 10° NNW visible
25 Jan ? 07:08:04 10° NNE 07:11:15 68° ESE 07:14:25 10° S visible
25 Jan ? 17:37:55 10° SE 17:40:47 32° ENE 17:43:41 10° N visible
25 Jan ? 19:10:52 10° SW 19:12:56 16° W 19:15:00 10° NW visible
26 Jan ? 06:22:11 10° NE 06:24:24 17° E 06:26:36 10° SE visible
26 Jan ? 18:22:54 10° S 18:26:02 61° WSW 18:29:12 10° NNW visible
27 Jan ? 07:06:44 10° NNE 07:09:55 65° ESE 07:13:04 10° S visible
27 Jan ? 17:36:36 10° SE 17:39:27 31° ENE 17:42:19 10° N visible
27 Jan ? 19:09:26 10° SW 19:11:34 17° W 19:13:42 10° NW visible
28 Jan ? 06:20:53 10° NE 06:23:02 17° E 06:25:10 10° SE visible
28 Jan ? 18:21:32 10° S 18:24:40 64° W 18:27:51 10° NNW visible
29 Jan ? 07:05:22 10° NNE 07:08:32 62° E 07:11:41 10° S visible
29 Jan ? 17:35:15 10° SE 17:38:04 30° ENE 17:40:54 10° N visible
29 Jan ? 19:07:58 10° SW 19:10:10 17° W 19:12:22 10° NW visible
30 Jan ? 06:19:32 10° NE 06:21:37 16° E 06:23:42 10° SE visible
30 Jan ? 18:20:06 10° S 18:23:15 67° WSW 18:26:27 10° NNW visible
31 Jan ? 07:03:57 10° NNE 07:07:06 59° E 07:10:15 10° S visible
31 Jan ? 19:06:27 10° SW 19:08:43 18° W 19:10:59 10° NW visible
